Home   Weather   Manado   Past weeks

Flag for Indonesia Past Weather in Manado, North Sulawesi, Indonesia — Yesterday and Last 2 Weeks

Now
77 °F

Light rain. Passing clouds.


Feels Like: 78 °F
Forecast: 76 / 89 °F
Wind: 5 mph from Northeast

Location: Menado / Dr. Sam Ratulangi

Current Time: Apr 27, 2017 at 11:11:31 pm

Latest Report: Apr 27, 2017 at 10:30 pm


Visibility: 5 mi

Pressure: 29.89 "Hg

Humidity: 94%

Dew Point: 75 °F

Location of ManadoLocation

Past Weather in Manado — Graph

°F

Manado Temperature Yesterday

Maximum temperature yesterday: 93 °F (at 10:30 am)
Minimum temperature yesterday: 73 °F (at 4:30 am)
Average temperature yesterday: 83 °F

High & Low Weather Summary for the Past Weeks

 TemperatureHumidityPressure
High95 °F (Apr 15, 10:30 am)100% (Apr 12, 10:30 pm)29.92 "Hg (Apr 12, 10:30 pm)
Low72 °F (Apr 13, 5:30 am)47% (Apr 16, 11:00 am)29.71 "Hg (Apr 15, 3:00 pm)
Average82 °F80%29.84 "Hg
* Reported Apr 12 9:00 pm — Apr 27 9:30 pm, Manado, Weather by CustomWeather, © 2017

Note: Actual official high and low records may vary slightly from our data, if they occured in-between our weather recording intervals... More about our weather records

Advertising

Manado Weather History for the Previous 24 Hours

Scroll right to see more
 ConditionsComfort  
Time TempWeatherWind HumidityBarometerVisibility
9:30 pm
Thu, Apr 27
79 °FPassing clouds.3 mph89%29.89 "Hg6 mi
9:00 pm79 °FPassing clouds.2 mph89%29.89 "Hg6 mi
8:30 pm79 °FPassing clouds.1 mph89%29.86 "Hg6 mi
8:00 pm79 °FPassing clouds.1 mph89%29.86 "Hg6 mi
7:30 pm79 °FPassing clouds.2 mph89%29.83 "Hg6 mi
7:00 pm79 °FPassing clouds.2 mph89%29.83 "Hg6 mi
6:30 pm81 °FPassing clouds.2 mph84%29.80 "Hg6 mi
6:00 pm81 °FPassing clouds.2 mph84%29.80 "Hg6 mi
5:30 pm81 °FScattered clouds.2 mph84%29.80 "Hg6 mi
5:00 pm81 °FScattered clouds.3 mph84%29.77 "Hg5 mi
4:30 pm82 °FLight rain. Scattered clouds.6 mph79%29.77 "Hg4 mi
4:00 pm86 °FLight rain. Scattered clouds.5 mph70%29.77 "Hg5 mi
3:30 pm90 °FScattered clouds.8 mph59%29.77 "Hg6 mi
3:00 pm91 °FScattered clouds.9 mph59%29.77 "Hg6 mi
2:30 pm93 °FScattered clouds.9 mph53%29.77 "HgN/A
2:00 pm93 °FScattered clouds.8 mph53%29.77 "HgN/A
1:30 pm93 °FScattered clouds.9 mph56%29.77 "HgN/A
1:00 pm91 °FScattered clouds.9 mph56%29.80 "HgN/A
12:30 pm95 °FScattered clouds.6 mph50%29.80 "HgN/A
12:00 pm93 °FScattered clouds.7 mph53%29.80 "HgN/A
11:30 am93 °FScattered clouds.7 mph53%29.83 "HgN/A
11:00 am93 °FScattered clouds.6 mph53%29.83 "HgN/A
10:30 am93 °FPassing clouds.7 mph56%29.86 "HgN/A
9:30 am93 °FPassing clouds.5 mph49%29.86 "HgN/A
9:00 am91 °FPassing clouds.2 mph56%29.86 "HgN/A
8:30 am90 °FPassing clouds.2 mph59%29.86 "HgN/A
8:00 am88 °FPassing clouds.1 mph66%29.83 "HgN/A
7:30 am82 °FPassing clouds.2 mph74%29.83 "HgN/A
7:00 am82 °FPassing clouds.1 mph79%29.80 "HgN/A
5:00 am75 °FPassing clouds.2 mph94%29.80 "HgN/A
4:30 am75 °FPassing clouds.2 mph94%29.80 "Hg6 mi
3:30 am75 °FPassing clouds.2 mph94%29.80 "Hg6 mi
3:00 am75 °FPassing clouds.1 mph94%29.77 "Hg6 mi
2:30 am77 °FPassing clouds.1 mph89%29.80 "Hg6 mi
2:00 am77 °FPassing clouds.1 mph89%29.80 "Hg6 mi
1:00 am75 °FPassing clouds.2 mph100%29.80 "Hg6 mi
12:30 am75 °FPassing clouds.No wind94%29.83 "Hg6 mi
12:00 am75 °FPassing clouds.2 mph100%29.83 "Hg6 mi
11:30 pm
Wed, Apr 26
75 °FPassing clouds.2 mph94%29.83 "Hg6 mi
11:00 pm77 °FPassing clouds.2 mph94%29.83 "Hg6 mi
Weather by CustomWeather, © 2017

See weather overviewHow to use our weather pages